When you browse on this site, cookies collect data to enhance your experience and personalize the content and advertising you see.
Visit our Privacy Policy to learn more. By continuing to use the site, you agree to this use of cookies and data.
EN

Hourly Weather Kolomac

Today, 27 September, Sunday

Time Temperature Precipitation Wind Pressure Humidity
00:00 +11°C° 0 mm 3 mps 746 mmHg 88%
01:00 +12°C° 0 mm 2 mps 746 mmHg 90%
02:00 +12°C° 0.1 mm 2 mps 746 mmHg 89%
03:00 +12°C° 0.1 mm 1 mps 747 mmHg 89%
04:00 +12°C° 0.1 mm 1 mps 747 mmHg 88%
05:00 +12°C° 0.7 mm 1 mps 747 mmHg 90%
06:00 +10°C° 0.7 mm 2 mps 747 mmHg 91%
07:00 +10°C° 0.7 mm 3 mps 747 mmHg 93%
08:00 +11°C° 0.5 mm 3 mps 747 mmHg 93%
09:00 +11°C° 0.5 mm 4 mps 747 mmHg 94%
10:00 +11°C° 0.5 mm 4 mps 747 mmHg 94%
11:00 +10°C° 0.8 mm 5 mps 747 mmHg 94%
12:00 +10°C° 0.8 mm 5 mps 748 mmHg 94%
13:00 +10°C° 0.8 mm 5 mps 748 mmHg 94%
14:00 +10°C° 0.5 mm 5 mps 748 mmHg 94%
15:00 +9°C° 0.5 mm 5 mps 748 mmHg 94%
16:00 +9°C° 0.5 mm 6 mps 749 mmHg 94%
17:00 +9°C° 0.4 mm 6 mps 749 mmHg 94%
18:00 +9°C° 0.4 mm 5 mps 749 mmHg 93%
19:00 +9°C° 0.4 mm 5 mps 750 mmHg 93%
20:00 +9°C° 0 mm 5 mps 751 mmHg 92%
21:00 +9°C° 0 mm 5 mps 751 mmHg 91%
22:00 +9°C° 0 mm 5 mps 752 mmHg 91%
23:00 +9°C° 0 mm 5 mps 753 mmHg 91%

Tomorrow, 28 September, Monday

Time Temperature Precipitation Wind Pressure Humidity
00:00 +8°C° 0 mm 4 mps 753 mmHg 92%
01:00 +8°C° 0 mm 4 mps 754 mmHg 92%
02:00 +8°C° 0 mm 4 mps 754 mmHg 92%
03:00 +7°C° 0 mm 4 mps 754 mmHg 92%
04:00 +7°C° 0 mm 4 mps 755 mmHg 92%
05:00 +7°C° 0 mm 4 mps 755 mmHg 91%
06:00 +7°C° 0 mm 4 mps 756 mmHg 90%
07:00 +8°C° 0 mm 3 mps 756 mmHg 89%
08:00 +10°C° 0 mm 4 mps 756 mmHg 82%
09:00 +12°C° 0 mm 4 mps 757 mmHg 75%
10:00 +14°C° 0 mm 4 mps 757 mmHg 68%
11:00 +15°C° 0 mm 4 mps 757 mmHg 63%
12:00 +17°C° 0 mm 4 mps 757 mmHg 59%
13:00 +18°C° 0 mm 3 mps 757 mmHg 54%
14:00 +18°C° 0 mm 3 mps 757 mmHg 55%
15:00 +18°C° 0 mm 3 mps 757 mmHg 57%
16:00 +18°C° 0 mm 2 mps 757 mmHg 59%
17:00 +17°C° 0 mm 2 mps 757 mmHg 64%
18:00 +15°C° 0 mm 2 mps 757 mmHg 68%
19:00 +14°C° 0 mm 2 mps 757 mmHg 73%
20:00 +13°C° 0 mm 2 mps 758 mmHg 73%
21:00 +13°C° 0 mm 2 mps 758 mmHg 74%
22:00 +12°C° 0 mm 2 mps 758 mmHg 75%
23:00 +12°C° 0 mm 2 mps 758 mmHg 76%

Day after tomorrow, 29 September, Tuesday

Time Temperature Precipitation Wind Pressure Humidity
00:00 +12°C° 0 mm 2 mps 758 mmHg 77%
01:00 +12°C° 0 mm 2 mps 758 mmHg 78%
02:00 +10°C° 0 mm 2 mps 758 mmHg 79%
03:00 +10°C° 0 mm 2 mps 758 mmHg 80%
04:00 +10°C° 0 mm 2 mps 758 mmHg 81%
05:00 +10°C° 0 mm 2 mps 758 mmHg 80%
06:00 +10°C° 0 mm 2 mps 759 mmHg 79%
07:00 +10°C° 0 mm 2 mps 759 mmHg 79%
08:00 +13°C° 0 mm 2 mps 759 mmHg 72%
09:00 +15°C° 0 mm 1 mps 759 mmHg 65%
10:00 +18°C° 0 mm 1 mps 759 mmHg 58%
11:00 +19°C° 0 mm 1 mps 759 mmHg 55%
12:00 +19°C° 0 mm 1 mps 759 mmHg 52%
13:00 +20°C° 0 mm 1 mps 759 mmHg 49%
14:00 +19°C° 0 mm 2 mps 759 mmHg 53%
15:00 +18°C° 0 mm 2 mps 759 mmHg 56%
16:00 +18°C° 0 mm 2 mps 759 mmHg 59%
17:00 +16°C° 0 mm 2 mps 759 mmHg 66%
18:00 +15°C° 0 mm 2 mps 759 mmHg 72%
19:00 +13°C° 0 mm 2 mps 759 mmHg 79%
20:00 +13°C° 0 mm 2 mps 759 mmHg 80%
21:00 +12°C° 0 mm 2 mps 760 mmHg 81%
22:00 +12°C° 0 mm 2 mps 760 mmHg 82%
23:00 +12°C° 0 mm 2 mps 760 mmHg 82%

30 September, Wednesday

Time Temperature Precipitation Wind Pressure Humidity
00:00 +11°C° 0 mm 1 mps 759 mmHg 82%
01:00 +11°C° 0 mm 1 mps 759 mmHg 83%
02:00 +11°C° 0 mm 1 mps 759 mmHg 83%
03:00 +11°C° 0 mm 1 mps 759 mmHg 83%
04:00 +11°C° 0 mm 1 mps 759 mmHg 83%
05:00 +11°C° 0 mm 1 mps 759 mmHg 82%
06:00 +11°C° 0 mm 1 mps 759 mmHg 81%
07:00 +11°C° 0 mm 1 mps 759 mmHg 80%
08:00 +13°C° 0 mm 1 mps 759 mmHg 73%
09:00 +15°C° 0 mm 1 mps 759 mmHg 66%
10:00 +17°C° 0 mm 2 mps 759 mmHg 59%
11:00 +19°C° 0 mm 1 mps 759 mmHg 56%
12:00 +19°C° 0 mm 1 mps 759 mmHg 52%
13:00 +20°C° 0 mm 1 mps 758 mmHg 49%
14:00 +20°C° 0 mm 1 mps 758 mmHg 51%
15:00 +19°C° 0 mm 2 mps 758 mmHg 53%
16:00 +19°C° 0 mm 2 mps 758 mmHg 55%
17:00 +17°C° 0 mm 2 mps 758 mmHg 61%
18:00 +14°C° 0 mm 3 mps 758 mmHg 66%
19:00 +13°C° 0 mm 3 mps 758 mmHg 72%
20:00 +12°C° 0 mm 3 mps 757 mmHg 73%
21:00 +12°C° 0 mm 3 mps 757 mmHg 75%
22:00 +11°C° 0 mm 3 mps 757 mmHg 76%
23:00 +12°C° 0 mm 2 mps 757 mmHg 76%

1 October, Thursday

Time Temperature Precipitation Wind Pressure Humidity
00:00 +12°C° 0 mm 2 mps 756 mmHg 76%
01:00 +10°C° 0 mm 2 mps 756 mmHg 76%
02:00 +10°C° 0 mm 2 mps 756 mmHg 76%
03:00 +10°C° 0 mm 2 mps 755 mmHg 76%
04:00 +10°C° 0 mm 2 mps 755 mmHg 75%
05:00 +10°C° 0 mm 2 mps 755 mmHg 75%
06:00 +10°C° 0 mm 2 mps 754 mmHg 74%
07:00 +10°C° 0 mm 3 mps 754 mmHg 74%
08:00 +12°C° 0 mm 3 mps 754 mmHg 73%
09:00 +14°C° 0 mm 3 mps 753 mmHg 72%
10:00 +17°C° 0 mm 3 mps 753 mmHg 71%
11:00 +18°C° 0 mm 3 mps 752 mmHg 68%
12:00 +19°C° 0 mm 3 mps 751 mmHg 64%
13:00 +20°C° 0 mm 3 mps 751 mmHg 61%
14:00 +20°C° 0 mm 3 mps 750 mmHg 63%
15:00 +20°C° 0 mm 4 mps 749 mmHg 64%
16:00 +19°C° 0 mm 4 mps 749 mmHg 65%
17:00 +18°C° 0 mm 4 mps 749 mmHg 68%
18:00 +17°C° 0 mm 4 mps 749 mmHg 70%
19:00 +14°C° 0 mm 5 mps 749 mmHg 73%
20:00 +14°C° 0 mm 5 mps 748 mmHg 70%
21:00 +14°C° 0 mm 5 mps 748 mmHg 66%
22:00 +14°C° 0 mm 5 mps 748 mmHg 63%
23:00 +14°C° 0 mm 5 mps 748 mmHg 66%

2 October, Friday

Time Temperature Precipitation Wind Pressure Humidity
00:00 +14°C° 0 mm 5 mps 748 mmHg 69%
01:00 +13°C° 0 mm 5 mps 748 mmHg 72%
02:00 +13°C° 0 mm 4 mps 748 mmHg 75%
03:00 +12°C° 0 mm 4 mps 748 mmHg 79%
04:00 +12°C° 0 mm 4 mps 748 mmHg 82%
05:00 +12°C° 0 mm 3 mps 748 mmHg 84%
06:00 +12°C° 0 mm 3 mps 748 mmHg 85%
07:00 +13°C° 0 mm 2 mps 748 mmHg 86%
08:00 +13°C° 0 mm 2 mps 748 mmHg 84%
09:00 +14°C° 0 mm 1 mps 748 mmHg 82%
10:00 +14°C° 0 mm 1 mps 749 mmHg 80%
11:00 +14°C° 0.5 mm 1 mps 749 mmHg 82%
12:00 +14°C° 0.5 mm 1 mps 749 mmHg 85%
13:00 +14°C° 0.5 mm 1 mps 749 mmHg 87%
14:00 +13°C° 0.5 mm 1 mps 749 mmHg 89%
15:00 +13°C° 0.5 mm 2 mps 748 mmHg 91%
16:00 +13°C° 0.5 mm 2 mps 748 mmHg 93%
17:00 +13°C° 0.3 mm 2 mps 748 mmHg 93%
18:00 +12°C° 0.3 mm 3 mps 748 mmHg 93%
19:00 +12°C° 0.3 mm 3 mps 748 mmHg 94%
20:00 +12°C° 0 mm 3 mps 748 mmHg 93%
21:00 +12°C° 0 mm 4 mps 748 mmHg 92%
22:00 +12°C° 0 mm 4 mps 747 mmHg 91%
23:00 +12°C° 0 mm 4 mps 747 mmHg 92%
Show more